#datetime,building,power
2024-01-02T00:00:00,cht,4.78
2024-01-02T00:01:00,cht,4.94
2024-01-02T00:02:00,cht,4.93
2024-01-02T00:03:00,cht,4.93
2024-01-02T00:04:00,cht,4.91
2024-01-02T00:05:00,cht,4.91
2024-01-02T00:06:00,cht,4.92
2024-01-02T00:07:00,cht,4.92
2024-01-02T00:08:00,cht,4.91
2024-01-02T00:09:00,cht,5.06
2024-01-02T00:10:00,cht,4.97
2024-01-02T00:11:00,cht,5.96
2024-01-02T00:12:00,cht,4.81
2024-01-02T00:13:00,cht,4.79
2024-01-02T00:14:00,cht,4.80
2024-01-02T00:15:00,cht,4.95
2024-01-02T00:16:00,cht,4.94
2024-01-02T00:17:00,cht,4.95
2024-01-02T00:18:00,cht,4.88
2024-01-02T00:19:00,cht,4.87
2024-01-02T00:20:00,cht,4.88
2024-01-02T00:21:00,cht,4.96
2024-01-02T00:22:00,cht,4.95
2024-01-02T00:23:00,cht,5.74
2024-01-02T00:24:00,cht,5.76
2024-01-02T00:25:00,cht,5.67
2024-01-02T00:26:00,cht,5.57
2024-01-02T00:27:00,cht,6.29
2024-01-02T00:28:00,cht,5.58
2024-01-02T00:29:00,cht,5.92
2024-01-02T00:30:00,cht,5.26
2024-01-02T00:31:00,cht,5.25
2024-01-02T00:32:00,cht,5.25
2024-01-02T00:33:00,cht,18.95
2024-01-02T00:34:00,cht,18.68
2024-01-02T00:35:00,cht,18.75
2024-01-02T00:36:00,cht,18.65
2024-01-02T00:37:00,cht,5.24
2024-01-02T00:38:00,cht,5.23
2024-01-02T00:39:00,cht,5.16
2024-01-02T00:40:00,cht,5.08
2024-01-02T00:41:00,cht,5.16
2024-01-02T00:42:00,cht,5.25
2024-01-02T00:43:00,cht,5.25
2024-01-02T00:44:00,cht,5.32
2024-01-02T00:45:00,cht,5.31
2024-01-02T00:46:00,cht,5.30
2024-01-02T00:47:00,cht,5.23
2024-01-02T00:48:00,cht,5.23
2024-01-02T00:49:00,cht,5.23
2024-01-02T00:50:00,cht,5.22
2024-01-02T00:51:00,cht,5.23
2024-01-02T00:52:00,cht,5.14
2024-01-02T00:53:00,cht,5.15
2024-01-02T00:54:00,cht,4.90
2024-01-02T00:55:00,cht,4.90
2024-01-02T00:56:00,cht,4.72
2024-01-02T00:57:00,cht,4.64
2024-01-02T00:58:00,cht,4.80
2024-01-02T00:59:00,cht,4.90
2024-01-02T01:00:00,cht,4.89
2024-01-02T01:01:00,cht,4.89
2024-01-02T01:02:00,cht,5.02
2024-01-02T01:03:00,cht,5.02
2024-01-02T01:04:00,cht,4.94
2024-01-02T01:05:00,cht,4.93
2024-01-02T01:06:00,cht,4.93
2024-01-02T01:07:00,cht,4.93
2024-01-02T01:08:00,cht,4.78
2024-01-02T01:09:00,cht,4.78
2024-01-02T01:10:00,cht,4.77
2024-01-02T01:11:00,cht,4.82
2024-01-02T01:12:00,cht,4.96
2024-01-02T01:13:00,cht,4.97
2024-01-02T01:14:00,cht,4.94
2024-01-02T01:15:00,cht,4.79
2024-01-02T01:16:00,cht,4.92
2024-01-02T01:17:00,cht,5.28
2024-01-02T01:18:00,cht,4.88
2024-01-02T01:19:00,cht,4.87
2024-01-02T01:20:00,cht,4.87
2024-01-02T01:21:00,cht,4.87
2024-01-02T01:22:00,cht,4.80
2024-01-02T01:23:00,cht,4.79
2024-01-02T01:24:00,cht,4.87
2024-01-02T01:25:00,cht,4.87
2024-01-02T01:26:00,cht,6.03
2024-01-02T01:27:00,cht,5.03
2024-01-02T01:28:00,cht,5.04
2024-01-02T01:29:00,cht,5.13
2024-01-02T01:30:00,cht,5.67
2024-01-02T01:31:00,cht,5.12
2024-01-02T01:32:00,cht,19.62
2024-01-02T01:33:00,cht,4.98
2024-01-02T01:34:00,cht,4.89
2024-01-02T01:35:00,cht,4.89
2024-01-02T01:36:00,cht,4.73
2024-01-02T01:37:00,cht,4.73
2024-01-02T01:38:00,cht,5.45
2024-01-02T01:39:00,cht,5.46
2024-01-02T01:40:00,cht,5.46
2024-01-02T01:41:00,cht,5.62
2024-01-02T01:42:00,cht,4.88
2024-01-02T01:43:00,cht,4.88
2024-01-02T01:44:00,cht,4.97
2024-01-02T01:45:00,cht,4.98
2024-01-02T01:46:00,cht,4.99
2024-01-02T01:47:00,cht,4.99
2024-01-02T01:48:00,cht,5.36
2024-01-02T01:49:00,cht,4.99
2024-01-02T01:50:00,cht,4.82
2024-01-02T01:51:00,cht,4.91
2024-01-02T01:52:00,cht,4.91
2024-01-02T01:53:00,cht,5.04
2024-01-02T01:54:00,cht,5.19
2024-01-02T01:55:00,cht,5.10
2024-01-02T01:56:00,cht,5.38
2024-01-02T01:57:00,cht,5.09
2024-01-02T01:58:00,cht,5.10
2024-01-02T01:59:00,cht,5.18
2024-01-02T02:00:00,cht,5.18
2024-01-02T02:01:00,cht,5.18
2024-01-02T02:02:00,cht,5.17
2024-01-02T02:03:00,cht,5.07
2024-01-02T02:04:00,cht,6.17
2024-01-02T02:05:00,cht,5.01
2024-01-02T02:06:00,cht,5.00
2024-01-02T02:07:00,cht,5.01
2024-01-02T02:08:00,cht,5.17
2024-01-02T02:09:00,cht,5.09
2024-01-02T02:10:00,cht,5.09
2024-01-02T02:11:00,cht,5.09
2024-01-02T02:12:00,cht,5.09
2024-01-02T02:13:00,cht,5.09
2024-01-02T02:14:00,cht,5.16
2024-01-02T02:15:00,cht,5.09
2024-01-02T02:16:00,cht,5.09
2024-01-02T02:17:00,cht,4.93
2024-01-02T02:18:00,cht,5.02
2024-01-02T02:19:00,cht,5.02
2024-01-02T02:20:00,cht,5.01
2024-01-02T02:21:00,cht,5.17
2024-01-02T02:22:00,cht,5.17
2024-01-02T02:23:00,cht,5.07
2024-01-02T02:24:00,cht,5.06
2024-01-02T02:25:00,cht,5.00
2024-01-02T02:26:00,cht,4.99
2024-01-02T02:27:00,cht,4.91
2024-01-02T02:28:00,cht,4.90
2024-01-02T02:29:00,cht,4.88
2024-01-02T02:30:00,cht,4.88
2024-01-02T02:31:00,cht,4.72
2024-01-02T02:32:00,cht,4.82
2024-01-02T02:33:00,cht,4.82
2024-01-02T02:34:00,cht,4.72
2024-01-02T02:35:00,cht,4.89
2024-01-02T02:36:00,cht,4.89
2024-01-02T02:37:00,cht,4.88
2024-01-02T02:38:00,cht,4.88
2024-01-02T02:39:00,cht,4.88
2024-01-02T02:40:00,cht,4.88
2024-01-02T02:41:00,cht,4.88
2024-01-02T02:42:00,cht,4.90
2024-01-02T02:43:00,cht,4.97
2024-01-02T02:44:00,cht,4.98
2024-01-02T02:45:00,cht,4.83
2024-01-02T02:46:00,cht,4.83
2024-01-02T02:47:00,cht,5.57
2024-01-02T02:48:00,cht,5.48
2024-01-02T02:49:00,cht,5.63
2024-01-02T02:50:00,cht,5.62
2024-01-02T02:51:00,cht,4.96
2024-01-02T02:52:00,cht,4.96
2024-01-02T02:53:00,cht,4.96
2024-01-02T02:54:00,cht,5.40
2024-01-02T02:55:00,cht,4.94
2024-01-02T02:56:00,cht,4.94
2024-01-02T02:57:00,cht,4.85
2024-01-02T02:58:00,cht,5.35
2024-01-02T02:59:00,cht,4.79
2024-01-02T03:00:00,cht,4.79
2024-01-02T03:01:00,cht,4.78
2024-01-02T03:02:00,cht,4.79
2024-01-02T03:03:00,cht,4.86
2024-01-02T03:04:00,cht,4.86
2024-01-02T03:05:00,cht,4.86
2024-01-02T03:06:00,cht,4.85
2024-01-02T03:07:00,cht,4.85
2024-01-02T03:08:00,cht,4.81
2024-01-02T03:09:00,cht,4.87
2024-01-02T03:10:00,cht,4.87
2024-01-02T03:11:00,cht,18.79
2024-01-02T03:12:00,cht,18.68
2024-01-02T03:13:00,cht,18.63
2024-01-02T03:14:00,cht,18.42
2024-01-02T03:15:00,cht,4.73
2024-01-02T03:16:00,cht,4.73
2024-01-02T03:17:00,cht,4.89
2024-01-02T03:18:00,cht,4.89
2024-01-02T03:19:00,cht,6.02
2024-01-02T03:20:00,cht,4.93
2024-01-02T03:21:00,cht,5.43
2024-01-02T03:22:00,cht,4.94
2024-01-02T03:23:00,cht,4.94
2024-01-02T03:24:00,cht,4.94
2024-01-02T03:25:00,cht,4.94
2024-01-02T03:26:00,cht,4.93
2024-01-02T03:27:00,cht,5.00
2024-01-02T03:28:00,cht,4.94
2024-01-02T03:29:00,cht,4.93
2024-01-02T03:30:00,cht,5.02
2024-01-02T03:31:00,cht,5.17
2024-01-02T03:32:00,cht,5.07
2024-01-02T03:33:00,cht,5.07
2024-01-02T03:34:00,cht,5.07
2024-01-02T03:35:00,cht,5.07
2024-01-02T03:36:00,cht,5.07
2024-01-02T03:37:00,cht,5.07
2024-01-02T03:38:00,cht,6.44
2024-01-02T03:39:00,cht,5.28
2024-01-02T03:40:00,cht,5.13
2024-01-02T03:41:00,cht,4.97
2024-01-02T03:42:00,cht,6.89
2024-01-02T03:43:00,cht,5.00
2024-01-02T03:44:00,cht,5.00
2024-01-02T03:45:00,cht,5.17
2024-01-02T03:46:00,cht,5.16
2024-01-02T03:47:00,cht,5.16
2024-01-02T03:48:00,cht,5.16
2024-01-02T03:49:00,cht,5.15
2024-01-02T03:50:00,cht,5.14
2024-01-02T03:51:00,cht,5.06
2024-01-02T03:52:00,cht,5.05
2024-01-02T03:53:00,cht,5.06
2024-01-02T03:54:00,cht,5.01
2024-01-02T03:55:00,cht,4.88
2024-01-02T03:56:00,cht,4.87
2024-01-02T03:57:00,cht,6.08
2024-01-02T03:58:00,cht,5.85
2024-01-02T03:59:00,cht,5.86
2024-01-02T04:00:00,cht,5.88
2024-01-02T04:01:00,cht,6.02
2024-01-02T04:02:00,cht,5.19
2024-01-02T04:03:00,cht,5.19
2024-01-02T04:04:00,cht,5.20
2024-01-02T04:05:00,cht,5.20
2024-01-02T04:06:00,cht,5.19
2024-01-02T04:07:00,cht,5.19
2024-01-02T04:08:00,cht,4.96
2024-01-02T04:09:00,cht,4.96
2024-01-02T04:10:00,cht,4.87
2024-01-02T04:11:00,cht,4.95
2024-01-02T04:12:00,cht,5.11
2024-01-02T04:13:00,cht,4.99
2024-01-02T04:14:00,cht,5.00
2024-01-02T04:15:00,cht,5.00
2024-01-02T04:16:00,cht,6.16
2024-01-02T04:17:00,cht,5.00
2024-01-02T04:18:00,cht,5.00
2024-01-02T04:19:00,cht,4.91
2024-01-02T04:20:00,cht,4.90
2024-01-02T04:21:00,cht,4.82
2024-01-02T04:22:00,cht,4.66
2024-01-02T04:23:00,cht,4.67
2024-01-02T04:24:00,cht,4.94
2024-01-02T04:25:00,cht,4.76
2024-01-02T04:26:00,cht,4.92
2024-01-02T04:27:00,cht,4.92
2024-01-02T04:28:00,cht,5.01
2024-01-02T04:29:00,cht,5.00
2024-01-02T04:30:00,cht,5.03
2024-01-02T04:31:00,cht,5.01
2024-01-02T04:32:00,cht,4.93
2024-01-02T04:33:00,cht,4.91
2024-01-02T04:34:00,cht,4.99
2024-01-02T04:35:00,cht,4.99
2024-01-02T04:36:00,cht,4.83
2024-01-02T04:37:00,cht,4.83
2024-01-02T04:38:00,cht,4.83
2024-01-02T04:39:00,cht,4.83
2024-01-02T04:40:00,cht,4.90
2024-01-02T04:41:00,cht,4.90
2024-01-02T04:42:00,cht,4.99
2024-01-02T04:43:00,cht,5.00
2024-01-02T04:44:00,cht,5.00
2024-01-02T04:45:00,cht,5.01
2024-01-02T04:46:00,cht,5.01
2024-01-02T04:47:00,cht,4.94
2024-01-02T04:48:00,cht,4.93
2024-01-02T04:49:00,cht,4.92
2024-01-02T04:50:00,cht,4.92
2024-01-02T04:51:00,cht,4.86
2024-01-02T04:52:00,cht,4.86
2024-01-02T04:53:00,cht,4.94
2024-01-02T04:54:00,cht,5.00
2024-01-02T04:55:00,cht,5.07
2024-01-02T04:56:00,cht,5.08
2024-01-02T04:57:00,cht,5.08
2024-01-02T04:58:00,cht,5.16
2024-01-02T04:59:00,cht,5.16
2024-01-02T05:00:00,cht,5.17
2024-01-02T05:01:00,cht,5.16
2024-01-02T05:02:00,cht,5.15
2024-01-02T05:03:00,cht,5.01
2024-01-02T05:04:00,cht,4.83
2024-01-02T05:05:00,cht,4.83
2024-01-02T05:06:00,cht,4.83
2024-01-02T05:07:00,cht,4.82
2024-01-02T05:08:00,cht,4.99
2024-01-02T05:09:00,cht,5.56
2024-01-02T05:10:00,cht,5.56
2024-01-02T05:11:00,cht,5.57
2024-01-02T05:12:00,cht,5.55
2024-01-02T05:13:00,cht,5.55
2024-01-02T05:14:00,cht,4.89
2024-01-02T05:15:00,cht,4.90
2024-01-02T05:16:00,cht,4.90
2024-01-02T05:17:00,cht,4.90
2024-01-02T05:18:00,cht,4.74
2024-01-02T05:19:00,cht,4.74
2024-01-02T05:20:00,cht,4.73
2024-01-02T05:21:00,cht,4.73
2024-01-02T05:22:00,cht,4.74
2024-01-02T05:23:00,cht,4.94
2024-01-02T05:24:00,cht,4.96
2024-01-02T05:25:00,cht,4.96
2024-01-02T05:26:00,cht,4.96
2024-01-02T05:27:00,cht,4.96
2024-01-02T05:28:00,cht,5.06
2024-01-02T05:29:00,cht,5.41
2024-01-02T05:30:00,cht,5.05
2024-01-02T05:31:00,cht,5.04
2024-01-02T05:32:00,cht,4.81
2024-01-02T05:33:00,cht,5.96
2024-01-02T05:34:00,cht,4.81
2024-01-02T05:35:00,cht,4.82
2024-01-02T05:36:00,cht,5.15
2024-01-02T05:37:00,cht,5.15
2024-01-02T05:38:00,cht,5.15
2024-01-02T05:39:00,cht,5.14
2024-01-02T05:40:00,cht,5.08
2024-01-02T05:41:00,cht,5.07
2024-01-02T05:42:00,cht,5.16
2024-01-02T05:43:00,cht,5.16
2024-01-02T05:44:00,cht,5.16
2024-01-02T05:45:00,cht,5.15
2024-01-02T05:46:00,cht,5.08
2024-01-02T05:47:00,cht,5.07
2024-01-02T05:48:00,cht,4.98
2024-01-02T05:49:00,cht,5.13
2024-01-02T05:50:00,cht,5.13
2024-01-02T05:51:00,cht,5.13
2024-01-02T05:52:00,cht,5.13
2024-01-02T05:53:00,cht,6.95
2024-01-02T05:54:00,cht,4.96
2024-01-02T05:55:00,cht,5.03
2024-01-02T05:56:00,cht,5.04
2024-01-02T05:57:00,cht,4.85
2024-01-02T05:58:00,cht,5.07
2024-01-02T05:59:00,cht,4.78
2024-01-02T06:00:00,cht,4.87
2024-01-02T06:01:00,cht,4.87
2024-01-02T06:02:00,cht,4.95
2024-01-02T06:03:00,cht,5.01
2024-01-02T06:04:00,cht,5.01
2024-01-02T06:05:00,cht,5.00
2024-01-02T06:06:00,cht,5.00
2024-01-02T06:07:00,cht,4.99
2024-01-02T06:08:00,cht,4.99
2024-01-02T06:09:00,cht,4.92
2024-01-02T06:10:00,cht,4.92
2024-01-02T06:11:00,cht,4.92
2024-01-02T06:12:00,cht,5.90
2024-01-02T06:13:00,cht,4.77
2024-01-02T06:14:00,cht,4.83
2024-01-02T06:15:00,cht,4.82
2024-01-02T06:16:00,cht,5.23
2024-01-02T06:17:00,cht,5.81
2024-01-02T06:18:00,cht,5.82
2024-01-02T06:19:00,cht,5.90
2024-01-02T06:20:00,cht,5.80
2024-01-02T06:21:00,cht,5.07
2024-01-02T06:22:00,cht,5.06
2024-01-02T06:23:00,cht,5.06
2024-01-02T06:24:00,cht,5.05
2024-01-02T06:25:00,cht,5.05
2024-01-02T06:26:00,cht,18.54
2024-01-02T06:27:00,cht,18.41
2024-01-02T06:28:00,cht,18.47
2024-01-02T06:29:00,cht,18.49
2024-01-02T06:30:00,cht,5.23
2024-01-02T06:31:00,cht,5.23
2024-01-02T06:32:00,cht,5.13
2024-01-02T06:33:00,cht,5.04
2024-01-02T06:34:00,cht,5.04
2024-01-02T06:35:00,cht,5.05
2024-01-02T06:36:00,cht,5.03
2024-01-02T06:37:00,cht,5.02
2024-01-02T06:38:00,cht,4.96
2024-01-02T06:39:00,cht,4.96
2024-01-02T06:40:00,cht,4.96
2024-01-02T06:41:00,cht,4.72
2024-01-02T06:42:00,cht,4.72
2024-01-02T06:43:00,cht,4.72
2024-01-02T06:44:00,cht,4.97
2024-01-02T06:45:00,cht,4.98
2024-01-02T06:46:00,cht,4.98
2024-01-02T06:47:00,cht,4.97
2024-01-02T06:48:00,cht,4.97
2024-01-02T06:49:00,cht,4.97
2024-01-02T06:50:00,cht,4.95
2024-01-02T06:51:00,cht,6.08
2024-01-02T06:52:00,cht,4.95
2024-01-02T06:53:00,cht,5.01
2024-01-02T06:54:00,cht,4.86
2024-01-02T06:55:00,cht,4.75
2024-01-02T06:56:00,cht,4.85
2024-01-02T06:57:00,cht,4.83
2024-01-02T06:58:00,cht,5.09
2024-01-02T06:59:00,cht,5.00
2024-01-02T07:00:00,cht,5.52
2024-01-02T07:01:00,cht,4.99
2024-01-02T07:02:00,cht,5.06
2024-01-02T07:03:00,cht,4.97
2024-01-02T07:04:00,cht,4.96
2024-01-02T07:05:00,cht,4.89
2024-01-02T07:06:00,cht,4.90
2024-01-02T07:07:00,cht,4.90
2024-01-02T07:08:00,cht,5.03
2024-01-02T07:09:00,cht,4.81
2024-01-02T07:10:00,cht,5.93
2024-01-02T07:11:00,cht,4.81
2024-01-02T07:12:00,cht,4.96
2024-01-02T07:13:00,cht,4.88
2024-01-02T07:14:00,cht,4.89
2024-01-02T07:15:00,cht,4.87
2024-01-02T07:16:00,cht,4.87
2024-01-02T07:17:00,cht,4.87
2024-01-02T07:18:00,cht,4.95
2024-01-02T07:19:00,cht,4.94
2024-01-02T07:20:00,cht,4.95
2024-01-02T07:21:00,cht,4.88
2024-01-02T07:22:00,cht,4.88
2024-01-02T07:23:00,cht,4.73
2024-01-02T07:24:00,cht,4.74
2024-01-02T07:25:00,cht,4.74
2024-01-02T07:26:00,cht,4.90
2024-01-02T07:27:00,cht,4.89
2024-01-02T07:28:00,cht,5.19
2024-01-02T07:29:00,cht,6.52
2024-01-02T07:30:00,cht,5.38
2024-01-02T07:31:00,cht,5.38
2024-01-02T07:32:00,cht,4.73
2024-01-02T07:33:00,cht,4.73
2024-01-02T07:34:00,cht,4.63
2024-01-02T07:35:00,cht,4.64
2024-01-02T07:36:00,cht,4.63
2024-01-02T07:37:00,cht,4.49
2024-01-02T07:38:00,cht,4.40
2024-01-02T07:39:00,cht,4.40
2024-01-02T07:40:00,cht,4.40
2024-01-02T07:41:00,cht,4.56
2024-01-02T07:42:00,cht,4.43
2024-01-02T07:43:00,cht,4.43
2024-01-02T07:44:00,cht,4.52
2024-01-02T07:45:00,cht,4.51
2024-01-02T07:46:00,cht,4.60
2024-01-02T07:47:00,cht,4.60
2024-01-02T07:48:00,cht,4.59
2024-01-02T07:49:00,cht,4.59
2024-01-02T07:50:00,cht,4.59
2024-01-02T07:51:00,cht,4.95
2024-01-02T07:52:00,cht,4.44
2024-01-02T07:53:00,cht,4.51
2024-01-02T07:54:00,cht,4.51
2024-01-02T07:55:00,cht,4.69
2024-01-02T07:56:00,cht,4.52
2024-01-02T07:57:00,cht,4.60
2024-01-02T07:58:00,cht,4.77
2024-01-02T07:59:00,cht,4.78
2024-01-02T08:00:00,cht,4.77
2024-01-02T08:01:00,cht,4.77
2024-01-02T08:02:00,cht,4.78
2024-01-02T08:03:00,cht,5.21
2024-01-02T08:04:00,cht,6.49
2024-01-02T08:05:00,cht,6.57
2024-01-02T08:06:00,cht,6.53
2024-01-02T08:07:00,cht,6.41
2024-01-02T08:08:00,cht,6.42
2024-01-02T08:09:00,cht,7.49
2024-01-02T08:10:00,cht,6.93
2024-01-02T08:11:00,cht,6.54
2024-01-02T08:12:00,cht,6.53
2024-01-02T08:13:00,cht,6.92
2024-01-02T08:14:00,cht,6.54
2024-01-02T08:15:00,cht,6.47
2024-01-02T08:16:00,cht,6.49
2024-01-02T08:17:00,cht,6.50
2024-01-02T08:18:00,cht,6.49
2024-01-02T08:19:00,cht,6.54
2024-01-02T08:20:00,cht,6.39
2024-01-02T08:21:00,cht,6.39
2024-01-02T08:22:00,cht,6.40
2024-01-02T08:23:00,cht,6.43
2024-01-02T08:24:00,cht,6.43
2024-01-02T08:25:00,cht,6.58
2024-01-02T08:26:00,cht,6.66
2024-01-02T08:27:00,cht,6.55
2024-01-02T08:28:00,cht,6.66
2024-01-02T08:29:00,cht,6.63
2024-01-02T08:30:00,cht,6.65
2024-01-02T08:31:00,cht,6.74
2024-01-02T08:32:00,cht,6.62
2024-01-02T08:33:00,cht,6.62
2024-01-02T08:34:00,cht,7.33
2024-01-02T08:35:00,cht,7.18
2024-01-02T08:36:00,cht,7.11
2024-01-02T08:37:00,cht,7.10
2024-01-02T08:38:00,cht,6.56
2024-01-02T08:39:00,cht,6.61
2024-01-02T08:40:00,cht,6.58
2024-01-02T08:41:00,cht,6.62
2024-01-02T08:42:00,cht,6.61
2024-01-02T08:43:00,cht,6.63
2024-01-02T08:44:00,cht,6.65
2024-01-02T08:45:00,cht,6.75
2024-01-02T08:46:00,cht,6.68
2024-01-02T08:47:00,cht,6.68
2024-01-02T08:48:00,cht,7.85
2024-01-02T08:49:00,cht,6.54
2024-01-02T08:50:00,cht,6.54
2024-01-02T08:51:00,cht,6.91
2024-01-02T08:52:00,cht,6.54
2024-01-02T08:53:00,cht,6.78
2024-01-02T08:54:00,cht,6.92
2024-01-02T08:55:00,cht,6.92
2024-01-02T08:56:00,cht,6.77
2024-01-02T08:57:00,cht,6.75
2024-01-02T08:58:00,cht,6.86
2024-01-02T08:59:00,cht,6.85
2024-01-02T09:00:00,cht,6.81
2024-01-02T09:01:00,cht,6.83
2024-01-02T09:02:00,cht,6.77
2024-01-02T09:03:00,cht,6.63
2024-01-02T09:04:00,cht,6.70
2024-01-02T09:05:00,cht,6.79
2024-01-02T09:06:00,cht,7.37
2024-01-02T09:07:00,cht,6.86
2024-01-02T09:08:00,cht,6.88
2024-01-02T09:09:00,cht,6.93
2024-01-02T09:10:00,cht,7.50
2024-01-02T09:11:00,cht,7.55
2024-01-02T09:12:00,cht,6.93
2024-01-02T09:13:00,cht,6.89
2024-01-02T09:14:00,cht,7.28
2024-01-02T09:15:00,cht,7.05
2024-01-02T09:16:00,cht,7.05
2024-01-02T09:17:00,cht,7.34
2024-01-02T09:18:00,cht,6.82
2024-01-02T09:19:00,cht,7.07
2024-01-02T09:20:00,cht,7.16
2024-01-02T09:21:00,cht,7.23
2024-01-02T09:22:00,cht,7.23
2024-01-02T09:23:00,cht,7.76
2024-01-02T09:24:00,cht,7.07
2024-01-02T09:25:00,cht,7.86
2024-01-02T09:26:00,cht,7.13
2024-01-02T09:27:00,cht,7.10
2024-01-02T09:28:00,cht,7.75
2024-01-02T09:29:00,cht,7.16
2024-01-02T09:30:00,cht,7.22
2024-01-02T09:31:00,cht,7.08
2024-01-02T09:32:00,cht,7.08
2024-01-02T09:33:00,cht,7.30
2024-01-02T09:34:00,cht,7.49
2024-01-02T09:35:00,cht,7.57
2024-01-02T09:36:00,cht,8.34
2024-01-02T09:37:00,cht,7.94
2024-01-02T09:38:00,cht,8.05
2024-01-02T09:39:00,cht,6.99
2024-01-02T09:40:00,cht,7.33
2024-01-02T09:41:00,cht,6.96
2024-01-02T09:42:00,cht,6.70
2024-01-02T09:43:00,cht,6.94
2024-01-02T09:44:00,cht,6.70
2024-01-02T09:45:00,cht,6.79
2024-01-02T09:46:00,cht,21.11
2024-01-02T09:47:00,cht,21.19
2024-01-02T09:48:00,cht,21.03
2024-01-02T09:49:00,cht,20.94
2024-01-02T09:50:00,cht,7.38
2024-01-02T09:51:00,cht,6.70
2024-01-02T09:52:00,cht,6.85
2024-01-02T09:53:00,cht,6.85
2024-01-02T09:54:00,cht,6.85
2024-01-02T09:55:00,cht,6.91
2024-01-02T09:56:00,cht,6.91
2024-01-02T09:57:00,cht,6.91
2024-01-02T09:58:00,cht,6.90
2024-01-02T09:59:00,cht,7.05
2024-01-02T10:00:00,cht,7.22
2024-01-02T10:01:00,cht,7.06
2024-01-02T10:02:00,cht,7.06
2024-01-02T10:03:00,cht,6.96
2024-01-02T10:04:00,cht,6.87
2024-01-02T10:05:00,cht,6.93
2024-01-02T10:06:00,cht,7.08
2024-01-02T10:07:00,cht,7.28
2024-01-02T10:08:00,cht,8.44
2024-01-02T10:09:00,cht,6.92
2024-01-02T10:10:00,cht,7.13
2024-01-02T10:11:00,cht,7.06
2024-01-02T10:12:00,cht,7.61
2024-01-02T10:13:00,cht,7.10
2024-01-02T10:14:00,cht,7.44
2024-01-02T10:15:00,cht,6.95
2024-01-02T10:16:00,cht,9.11
2024-01-02T10:17:00,cht,6.81
2024-01-02T10:18:00,cht,6.90
2024-01-02T10:19:00,cht,6.92
2024-01-02T10:20:00,cht,6.92
2024-01-02T10:21:00,cht,6.98
2024-01-02T10:22:00,cht,7.32
2024-01-02T10:23:00,cht,7.30
2024-01-02T10:24:00,cht,7.28
2024-01-02T10:25:00,cht,7.31
2024-01-02T10:26:00,cht,7.29
2024-01-02T10:27:00,cht,7.31
2024-01-02T10:28:00,cht,7.30
2024-01-02T10:29:00,cht,7.29
2024-01-02T10:30:00,cht,7.37
2024-01-02T10:31:00,cht,7.17
2024-01-02T10:32:00,cht,7.19
2024-01-02T10:33:00,cht,7.18
2024-01-02T10:34:00,cht,7.09
2024-01-02T10:35:00,cht,7.11
2024-01-02T10:36:00,cht,7.27
2024-01-02T10:37:00,cht,7.41
2024-01-02T10:38:00,cht,7.40
2024-01-02T10:39:00,cht,7.44
2024-01-02T10:40:00,cht,7.48
2024-01-02T10:41:00,cht,7.48
2024-01-02T10:42:00,cht,7.47
2024-01-02T10:43:00,cht,8.02
2024-01-02T10:44:00,cht,7.50
2024-01-02T10:45:00,cht,7.49
2024-01-02T10:46:00,cht,7.54
2024-01-02T10:47:00,cht,7.55
2024-01-02T10:48:00,cht,7.74
2024-01-02T10:49:00,cht,7.82
2024-01-02T10:50:00,cht,7.80
2024-01-02T10:51:00,cht,7.83
2024-01-02T10:52:00,cht,7.82
2024-01-02T10:53:00,cht,7.83
2024-01-02T10:54:00,cht,7.82
2024-01-02T10:55:00,cht,7.84
2024-01-02T10:56:00,cht,8.43
2024-01-02T10:57:00,cht,8.62
2024-01-02T10:58:00,cht,13.80
2024-01-02T10:59:00,cht,8.42
2024-01-02T11:00:00,cht,8.84
2024-01-02T11:01:00,cht,7.78
2024-01-02T11:02:00,cht,8.02
2024-01-02T11:03:00,cht,8.17
2024-01-02T11:04:00,cht,8.07
2024-01-02T11:05:00,cht,8.40
2024-01-02T11:06:00,cht,7.96
2024-01-02T11:07:00,cht,7.99
2024-01-02T11:08:00,cht,7.98
2024-01-02T11:09:00,cht,8.64
2024-01-02T11:10:00,cht,7.96
2024-01-02T11:11:00,cht,7.95
2024-01-02T11:12:00,cht,7.67
2024-01-02T11:13:00,cht,7.65
2024-01-02T11:14:00,cht,7.76
2024-01-02T11:15:00,cht,7.43
2024-01-02T11:16:00,cht,7.58
2024-01-02T11:17:00,cht,7.46
2024-01-02T11:18:00,cht,7.41
2024-01-02T11:19:00,cht,7.41
2024-01-02T11:20:00,cht,7.41
2024-01-02T11:21:00,cht,7.32
2024-01-02T11:22:00,cht,7.42
2024-01-02T11:23:00,cht,7.41
2024-01-02T11:24:00,cht,8.01
2024-01-02T11:25:00,cht,8.09
2024-01-02T11:26:00,cht,7.81
2024-01-02T11:27:00,cht,8.04
2024-01-02T11:28:00,cht,21.68
2024-01-02T11:29:00,cht,21.66
2024-01-02T11:30:00,cht,21.85
2024-01-02T11:31:00,cht,21.92
2024-01-02T11:32:00,cht,8.23
2024-01-02T11:33:00,cht,7.98
2024-01-02T11:34:00,cht,7.91
2024-01-02T11:35:00,cht,27.37
2024-01-02T11:36:00,cht,8.04
2024-01-02T11:37:00,cht,8.03
2024-01-02T11:38:00,cht,7.78
2024-01-02T11:39:00,cht,7.77
2024-01-02T11:40:00,cht,7.55
2024-01-02T11:41:00,cht,7.99
2024-01-02T11:42:00,cht,7.62
2024-01-02T11:43:00,cht,7.69
2024-01-02T11:44:00,cht,7.85
2024-01-02T11:45:00,cht,7.23
2024-01-02T11:46:00,cht,7.26
2024-01-02T11:47:00,cht,7.27
2024-01-02T11:48:00,cht,7.33
2024-01-02T11:49:00,cht,7.65
2024-01-02T11:50:00,cht,7.28
2024-01-02T11:51:00,cht,7.36
2024-01-02T11:52:00,cht,7.28
2024-01-02T11:53:00,cht,7.29
2024-01-02T11:54:00,cht,21.80
2024-01-02T11:55:00,cht,7.20
2024-01-02T11:56:00,cht,7.10
2024-01-02T11:57:00,cht,22.15
2024-01-02T11:58:00,cht,21.82
2024-01-02T11:59:00,cht,7.35
2024-01-02T12:00:00,cht,8.71
2024-01-02T12:01:00,cht,8.30
2024-01-02T12:02:00,cht,8.48
2024-01-02T12:03:00,cht,8.45
2024-01-02T12:04:00,cht,7.62
2024-01-02T12:05:00,cht,7.63
2024-01-02T12:06:00,cht,8.33
2024-01-02T12:07:00,cht,8.31
2024-01-02T12:08:00,cht,8.28
2024-01-02T12:09:00,cht,7.61
2024-01-02T12:10:00,cht,7.45
2024-01-02T12:11:00,cht,7.45
2024-01-02T12:12:00,cht,8.07
2024-01-02T12:13:00,cht,8.08
2024-01-02T12:14:00,cht,8.14
2024-01-02T12:15:00,cht,8.17
2024-01-02T12:16:00,cht,8.17
2024-01-02T12:17:00,cht,7.52
2024-01-02T12:18:00,cht,7.87
2024-01-02T12:19:00,cht,7.83
2024-01-02T12:20:00,cht,8.29
2024-01-02T12:21:00,cht,8.09
2024-01-02T12:22:00,cht,8.07
2024-01-02T12:23:00,cht,8.49
2024-01-02T12:24:00,cht,8.01
2024-01-02T12:25:00,cht,7.51
2024-01-02T12:26:00,cht,7.45
2024-01-02T12:27:00,cht,7.90
2024-01-02T12:28:00,cht,7.37
2024-01-02T12:29:00,cht,7.36
2024-01-02T12:30:00,cht,7.44
2024-01-02T12:31:00,cht,7.46
2024-01-02T12:32:00,cht,7.45
2024-01-02T12:33:00,cht,7.39
2024-01-02T12:34:00,cht,7.48
2024-01-02T12:35:00,cht,7.27
2024-01-02T12:36:00,cht,7.27
2024-01-02T12:37:00,cht,7.55
2024-01-02T12:38:00,cht,7.55
2024-01-02T12:39:00,cht,7.54
2024-01-02T12:40:00,cht,7.55
2024-01-02T12:41:00,cht,7.74
2024-01-02T12:42:00,cht,7.42
2024-01-02T12:43:00,cht,7.18
2024-01-02T12:44:00,cht,7.17
2024-01-02T12:45:00,cht,7.21
2024-01-02T12:46:00,cht,7.21
2024-01-02T12:47:00,cht,7.36
2024-01-02T12:48:00,cht,7.37
2024-01-02T12:49:00,cht,8.51
2024-01-02T12:50:00,cht,7.28
2024-01-02T12:51:00,cht,7.29
2024-01-02T12:52:00,cht,7.28
2024-01-02T12:53:00,cht,21.58
2024-01-02T12:54:00,cht,7.36
2024-01-02T12:55:00,cht,7.32
2024-01-02T12:56:00,cht,7.32
2024-01-02T12:57:00,cht,7.45
2024-01-02T12:58:00,cht,7.33
2024-01-02T12:59:00,cht,7.16
2024-01-02T13:00:00,cht,7.15
2024-01-02T13:01:00,cht,7.25
2024-01-02T13:02:00,cht,7.39
2024-01-02T13:03:00,cht,7.33
2024-01-02T13:04:00,cht,7.33
2024-01-02T13:05:00,cht,7.23
2024-01-02T13:06:00,cht,7.30
2024-01-02T13:07:00,cht,7.19
2024-01-02T13:08:00,cht,7.97
2024-01-02T13:09:00,cht,7.92
2024-01-02T13:10:00,cht,7.90
2024-01-02T13:11:00,cht,7.71
2024-01-02T13:12:00,cht,7.71
2024-01-02T13:13:00,cht,21.25
2024-01-02T13:14:00,cht,20.21
2024-01-02T13:15:00,cht,21.77
2024-01-02T13:16:00,cht,20.47
2024-01-02T13:17:00,cht,6.95
2024-01-02T13:18:00,cht,6.96
2024-01-02T13:19:00,cht,7.01
2024-01-02T13:20:00,cht,6.94
2024-01-02T13:21:00,cht,6.93
2024-01-02T13:22:00,cht,6.92
2024-01-02T13:23:00,cht,6.94
2024-01-02T13:24:00,cht,6.93
2024-01-02T13:25:00,cht,24.43
2024-01-02T13:26:00,cht,6.99
2024-01-02T13:27:00,cht,6.96
2024-01-02T13:28:00,cht,7.58
2024-01-02T13:29:00,cht,7.59
2024-01-02T13:30:00,cht,7.71
2024-01-02T13:31:00,cht,8.04
2024-01-02T13:32:00,cht,8.48
2024-01-02T13:33:00,cht,7.18
2024-01-02T13:34:00,cht,7.09
2024-01-02T13:35:00,cht,7.04
2024-01-02T13:36:00,cht,7.03
2024-01-02T13:37:00,cht,7.11
2024-01-02T13:38:00,cht,7.12
2024-01-02T13:39:00,cht,7.12
2024-01-02T13:40:00,cht,7.11
2024-01-02T13:41:00,cht,7.10
2024-01-02T13:42:00,cht,7.21
2024-01-02T13:43:00,cht,7.07
2024-01-02T13:44:00,cht,7.05